THOR ABLESTAR DEB, 3932

Orbit data source: Space-Track

THOR ABLESTAR DEB, 3932 is space debris in LEO originally from a launch on Thu, 29 Jun 1961 UTC launched from the Air Force Eastern Test Range (AFETR). Debris objects in space refer to the collection of defunct objects orbiting the Earth. Examples of debris include non-operational satellites, rocket bodies, and fragments generated from explosions, collisions, or faulty payload assembly.

Loading next visibility...
Identifier
3932, 1961-015JG
Orbit
LEO
Country
Flag of USUS
Related business
Manufacturer
Unknown
Mission
Spacecraft
Bus & Motor
Unknown
Mass
Unknown
Launch date (UTC)
1961-06-29 (64 years ago)
Launch vehicle
Unknown
Launch site
Air Force Eastern Test Range (AFETR)
Object type
Payload
Rocket body
Debris
Shape & HBR
Unknown shape, 0.1 m
Radar Cross Section
Small (<0.1 m²)

Expand to show TLE details & history
Last TLE update: 4 hours ago

TLE from 4 hours ago
0 THOR ABLESTAR DEB
1  3932U 61015JG  25300.18692934  .00000221  00000-0  53050-3 0  9993
2  3932  65.7985 238.4907 0290456 220.1326 254.5555 13.25798880120919
Epoch: 2025-10-27T04:29Z
TLE epoch observation values (Epoch: 2025-10-27T04:29:10.694Z)
Latitude
58.17044°
Longitude
-90.6846°
Altitude
1,235.723 km
Speed
7.212 km/s
True Right ascension
00h 49m 36s
True Declination
58° 01' 33"
Sunlit
Object was in full shadow at epoch
Visualization orbit readout
Latitude
Unknown
Longitude
Unknown
Altitude
Unknown
Speed
Unknown
Apparent Right ascension
Unknown
Apparent Declination
Unknown
Sunlit
N/A
Visualization observer readout
Local Sidereal Time
03:44:10
Azimuth
Unknown
Elevation
Unknown
Doppler factor
Unknown
Orbital elements
Apogee altitude
1,380.191 km
Perigee altitude
942.222 km
Semi-major axis
7,539.343 km
Eccentricity
0.02905
Inclination
65.7985°
RAAN
238.4907°
Arg. of periapsis
220.1326°
True anomaly
251.37967°
Mean anomaly
254.5555°
Eccentric anomaly
252.96433°
Mean motion
3.31545 °/min
Orbital period
108.58 mins
BSTAR
0.0005305
Loading maneuver chart data...
Computing Atmospheric mass density...

Documentation

Showing up to 5 results
|